Weather in Geilo

Norway     60°31′58″N   8°12′33″E
temp.,
°C
wind,
m/s
gust,
m/s
humid.,
%
clouds,
%
prec.,
mm/h
press.,
hPa
HPBL,
m
12 may, wed
wed1223:00−4wnw2293100 0.0 101710
02:00−5w229099 0.0 101811
05:00−4wnw2285100 0.0 101511
08:000n1194100 0.3 101337
11:00+1n23100100 2.4 1011129
14:000n22100100 6.1 1010137
17:00+1w22100100 0.2 100965
20:00+1w11100100 2.5 100912
13 may, thu
thu1323:00+1w229999 0.0 101020
02:00+2w339799 0.0 101030
05:00+1w229570 0.0 101019
08:00+2wnw2210089 0.0 101121
11:00+2wnw2210088 0.0 101130
14:00+3nw1110098 0.0 101128
17:00+3nnw1110098 0.0 101123
20:00+4n1110099 0.0 101110
14 may, fri
fri1423:00+1wnw2195100 0.0 101211
02:00+2wnw2297100 0.0 101111
05:00+2wnw119696 0.0 101110
08:00+2w11100100 0.1 101110
11:00+3sse00100100 0.1 101116
14:00+4w119996 0.1 101061
17:00+3w229996 0.1 100963
20:00+2w2210098 0.1 100939
15 may, sat
sat1523:00+2wnw22100100 0.4 100918
02:00+2nw11100100 1.6 100810
05:00+2sse11100100 2.6 100811
08:00+3nw11100100 2.8 100819
11:00+3n2397100 0.2 1007141
14:00+7nne3482100 0.5 1005738
17:00+5ene2291100 0.3 100419
20:00+4nnw0095100 0.3 100411
16 may, sun
sun1623:00+3e23100100 0.8 100442
02:00+1ene24100100 2.3 1005315
05:00+1ne14100100 1.1 1004381
08:00+1e1299100 1.7 1004179
11:00+1ese11100100 2.4 1004101
14:00+1ese12100100 4.1 1004132
17:00+1se22100100 2.8 1003156
20:000se12100100 5.1 1004103